Regional Weather Roundup
Issued by NWS

Home | Current Version | Previous Version | Text Only | Print | Product List | Glossary On
Versions: 1 2 3 4 5 6 7 8 9 10 11 12 13 14 15 16 17 18 19 20 21 22 23 24 25 26 27 28 29 30 31 32 33 34 35 36 37 38 39 40 41 42 43 44 45 46 47 48 49 50
000
ASUS42 KFFC 180903
RWRGA
WEATHER ROUNDUP FOR GEORGIA
NATIONAL WEATHER SERVICE PEACHTREE CITY GA
500 AM EDT SAT APR 18 2015

NOTE: "FAIR" INDICATES FEW OR NO CLOUDS BELOW 12,000 FEET WITH NO
SIGNIFICANT WEATHER AND/OR OBSTRUCTIONS TO VISIBILITY.

* = USE WITH CAUTION. THE STATIONS MARKED WITH AN ASTERISK MAY NOT
REPORT WEATHER SUCH AS PRECIPITATION, FOG, OR THUNDER AND ARE NOT
QUALITY CONTROLLED BY NWS.

THE REMARK "TC" DENOTES TEMPERATURE READING IN DEGREES CELSIUS.

GAZ001>058-181000-
NORTH GEORGIA

CITY           SKY/WX    TMP DP  RH WIND       PRES   REMARKS
ATLANTA        CLOUDY    63  61  93 E7        29.97S FOG
ATHENS         LGT RAIN  62  62 100 NE7       29.98F FOG
CHAMBLEE       CLOUDY    62  61  96 CALM      29.97F
PEACHTREE CITY CLOUDY    63  62  97 N3        29.97S FOG
ROME           CLOUDY    61  60  97 NE5       29.98S
WEST ATLANTA   CLOUDY    62  61  96 NE6       29.97
GAINESVILLE    CLOUDY    61  60  97 NE6       30.00F
CARTERSVILLE   CLOUDY    62  60  93 CALM      29.98F


CITY           SKY/WX    TMP DP  RH WIND       PRES   REMARKS
DALTON*        FOG       59  59 100 CALM      29.99F VSB 1/2
MARIETTA       CLOUDY    62  62 100 NE3       29.98S
BLAIRSVILLE*   HAZE      59  53  79 CALM      30.03S VSB 1/4
$$

GAZ059>098-102>109-181000-
CENTRAL GEORGIA

CITY           SKY/WX    TMP DP  RH WIND       PRES   REMARKS
AUGUSTA-BUSH   CLOUDY    65  64  97 CALM      29.96F
AUGUSTA-DANIEL CLOUDY    66  64  93 CALM      29.98S
COLUMBUS       CLOUDY    63  63 100 CALM      29.94R FOG
MACON          LGT RAIN  64  64 100 CALM      29.93S FOG
ROBINS AFB     DRIZZLE   65  65 100 CALM      29.93R


CITY           SKY/WX    TMP DP  RH WIND       PRES   REMARKS
LAGRANGE*      CLOUDY    66  66  99 CALM      29.95S
SYLVANIA*      FOG       67  67 100 CALM      29.96S VSB 1
MILLEDGEVILLE* CLOUDY    64  64 100 NE3       29.95F
$$

GAZ099>101-110>166-181000-
SOUTH GEORGIA

CITY           SKY/WX    TMP DP  RH WIND       PRES   REMARKS
SAVANNAH       CLOUDY    68  66  93 CALM      29.95F
VALDOSTA       CLOUDY    69  68  96 S3        29.93S
ALMA           MOCLDY    67  65  93 S6        29.93F
ST SIMONS      CLOUDY    68  66  93 NE3       29.96S
FT STEWART     CLOUDY    67  66  96 CALM      29.93F
ALBANY         MOCLDY    68  66  93 SW3       29.95S FOG
HUNTER AFB     CLOUDY    68  68 100 SE3       29.93S
MOODY AFB      CLOUDY    68  66  95 SE2       29.93S
BRUNSWICK      CLOUDY    68  64  88 E5        29.95F


CITY           SKY/WX    TMP DP  RH WIND       PRES   REMARKS
BAINBRIDGE*    CLOUDY    72  70  94 CALM      29.93S FOG
MOULTRIE*      FOG       68 N/A N/A CALM      29.94S VSB 3/4
VIDALIA*       LGT RAIN  66  66 100 SE3       29.95F
WAYCROSS*      MOCLDY    70  69  95 CALM      29.94F
DOUGLAS*       LGT RAIN  70  68  94 S3        29.95F
$$


USA.gov is the U.S. government's official web portal to all federal, state and local government web resources and services.